Location: Cruquius
(52.3348°N, 4.6319°E)
Time: 21:12:58
(UTC+00:00)

Cosmos 2242 Rocket - Pass Details

Date: 30 September 2021
Orbit: 618 x 651 km, 82.5° (Epoch: 21 October)

Event Time Altitude Azimuth Distance (km) Brightness Sun altitude
Rises 03:56:46 0° 143° (SE) 2,957 7.3 -16.5°
Reaches altitude 10° 03:59:40 10° 123° (ESE) 2,055 6.8 -16.1°
Maximum altitude 04:02:36 17° 83° (E) 1,639 6.8 -15.7°
Drops below altitude 10° 04:05:33 10° 43° (NE) 2,070 7.2 -15.3°
Sets 04:08:28 0° 24° (NNE) 2,986 7.7 -14.8°
